SR9WXM Weather Reports


time (UTC)temp
F
wind
direction
speed
knots
gust
knots
rain 1hr
in
rain 24hr
in
rain mn
in
humidity
%
barometer
mb
20260508012854 44 318 0.9 1.7 0.00 0.00 0.00 100
20260508012453 44 315 0.9 1.7 0.00 0.00 0.00 100
20260508012053 44 328 0.9 1.7 0.00 0.00 0.00 100
20260508011653 44 21 0.9 1.7 0.00 0.00 0.00 100
20260508011251 44 5 0.9 0.9 0.00 0.00 0.00 100
20260508010851 44 293 0.0 0.0 0.00 0.00 0.00 100
20260508010450 44 292 0.0 0.9 0.00 0.00 0.00 100
20260508010050 44 291 0.9 0.9 0.00 0.00 0.00 100
20260508005651 44 348 0.9 2.6 0.00 0.00 0.00 100
20260508005249 44 348 0.9 2.6 0.00 0.00 0.00 100
20260508004849 44 347 0.9 2.6 0.00 0.00 0.00 100
20260508004448 44 346 0.9 1.7 0.00 0.00 0.00 100
20260508004048 44 352 1.7 2.6 0.00 0.00 0.00 100
20260508003648 44 327 1.7 3.5 0.00 0.00 0.00 100
20260508003246 44 69 0.0 0.9 0.00 0.00 0.00 100
20260508002846 44 69 0.9 0.9 0.00 0.00 0.00 100
20260508002446 44 71 0.9 1.7 0.00 0.00 0.00 100
20260508002046 44 71 0.0 0.9 0.00 0.00 0.00 100
20260508001646 44 69 0.0 1.7 0.00 0.00 0.00 100
20260508001244 44 69 0.9 0.9 0.00 0.00 0.00 100
20260508000844 44 69 0.9 1.7 0.00 0.00 0.00 100
20260508000444 44 69 1.7 3.5 0.00 0.00 0.00 100
20260508000043 45 69 1.7 3.5 0.00 0.00 0.00 100
20260507235643 45 69 1.7 1.7 0.00 0.00 0.00 100
20260507235241 45 71 1.7 2.6 0.00 0.00 0.00 100
20260507234841 45 69 1.7 1.7 0.00 0.00 0.00 100
20260507234442 45 69 0.9 0.9 0.00 0.00 0.00 100
20260507234041 45 46 1.7 3.5 0.00 0.00 0.00 100
20260507233641 45 21 1.7 2.6 0.00 0.00 0.00 100
20260507233239 45 26 1.7 3.5 0.00 0.00 0.00 100
20260507232839 45 9 1.7 3.5 0.00 0.00 0.00 100
20260507232439 45 346 1.7 4.3 0.00 0.00 0.00 100
20260507232039 44 30 1.7 3.5 0.00 0.00 0.00 100
20260507231639 44 33 2.6 4.3 0.00 0.00 0.00 100
20260507231228 44 64 2.6 5.2 0.00 0.00 0.00 100
20260507230828 44 63 1.7 4.3 0.00 0.00 0.00 100
20260507230428 44 88 4.3 7.0 0.00 0.00 0.00 100
20260507230027 44 75 1.7 2.6 0.00 0.00 0.00 100
20260507225628 44 47 1.7 2.6 0.00 0.00 0.00 100
20260507225226 44 74 1.7 1.7 0.00 0.00 0.00 100
20260507224826 44 68 1.7 3.5 0.00 0.00 0.00 100
20260507224426 44 74 1.7 3.5 0.00 0.00 0.00 100
20260507224026 44 70 1.7 2.6 0.00 0.00 0.00 100
20260507223626 44 72 1.7 5.2 0.00 0.00 0.00 100
20260507223224 44 72 3.5 7.0 0.00 0.00 0.00 100
20260507222824 44 67 4.3 7.8 0.00 0.00 0.00 100
20260507222424 45 69 2.6 6.1 0.00 0.00 0.00 100
20260507222023 45 53 1.7 3.5 0.00 0.00 0.00 100
20260507221623 45 73 4.3 7.0 0.00 0.00 0.00 100
20260507221221 45 65 4.3 7.8 0.00 0.00 0.00 100
20260507220821 45 57 3.5 5.2 0.00 0.00 0.00 100
20260507220421 45 70 2.6 5.2 0.00 0.00 0.00 100
20260507220021 45 72 4.3 7.0 0.00 0.00 0.00 100
20260507215620 45 64 3.5 7.0 0.00 0.00 0.00 100
20260507215219 45 74 3.5 7.0 0.00 0.00 0.00 100
20260507214819 45 47 5.2 8.7 0.00 0.00 0.00 100
20260507214418 45 61 5.2 8.7 0.00 0.00 0.00 100
20260507214016 45 59 5.2 8.7 0.00 0.00 0.00 100
20260507213616 45 72 5.2 10.4 0.00 0.00 0.00 100
20260507213214 45 58 5.2 7.8 0.00 0.00 0.00 100
20260507212814 45 75 4.3 6.1 0.00 0.00 0.00 100
20260507212414 45 51 6.1 10.4 0.00 0.00 0.00 100
20260507212014 45 55 4.3 7.0 0.00 0.00 0.00 100
20260507211614 45 32 4.3 7.0 0.00 0.00 0.00 100
20260507211212 45 23 6.1 8.7 0.00 0.00 0.00 100
20260507210812 45 21 4.3 6.1 0.00 0.00 0.00 100
20260507210411 46 31 3.5 5.2 0.00 0.00 0.00 100
20260507210011 46 27 3.5 5.2 0.00 0.00 0.00 100
20260507205612 46 16 4.3 5.2 0.00 0.00 0.00 100
20260507205210 46 12 4.3 7.0 0.00 0.00 0.00 100
20260507204810 46 17 4.3 5.2 0.00 0.00 0.00 100
20260507204410 46 17 4.3 6.1 0.00 0.00 0.00 100
20260507204010 46 25 3.5 5.2 0.00 0.00 0.00 100
20260507203602 46 22 3.5 4.3 0.00 0.00 0.00 100
20260507203201 46 0 2.6 5.2 0.00 0.00 0.00 100
20260507202801 46 330 1.7 5.2 0.00 0.00 0.00 100
20260507202401 46 326 1.7 5.2 0.00 0.00 0.00 100
20260507202000 46 286 2.6 4.3 0.00 0.00 0.00 100
20260507201600 46 275 2.6 5.2 0.00 0.00 0.00 100
20260507201158 46 261 3.5 6.1 0.00 0.00 0.00 100
20260507200758 46 263 3.5 5.2 0.00 0.00 0.00 100
20260507200358 47 241 4.3 9.6 0.00 0.00 0.00 100
20260507195958 47 214 5.2 8.7 0.00 0.00 0.00 100
20260507195558 47 267 4.3 7.0 0.00 0.00 0.00 100
20260507195156 47 275 4.3 7.0 0.00 0.00 0.00 100
20260507194756 47 262 4.3 8.7 0.00 0.00 0.00 100
20260507194356 47 260 4.3 7.0 0.00 0.00 0.00 100
20260507193956 47 221 5.2 10.4 0.00 0.00 0.00 100
20260507193556 48 270 6.1 9.6 0.00 0.00 0.00 100
20260507193155 48 147 4.3 7.8 0.00 0.00 0.00 100
20260507192755 48 71 5.2 7.0 0.00 0.00 0.00 100
20260507192355 47 49 4.3 6.1 0.00 0.00 0.00 100
20260507191955 47 236 4.3 7.8 0.00 0.00 0.00 100
20260507191555 47 64 4.3 6.1 0.00 0.00 0.00 100
20260507191153 47 113 5.2 6.1 0.00 0.00 0.00 100
20260507190753 47 60 4.3 6.1 0.00 0.00 0.00 100
20260507190353 47 118 5.2 7.0 0.00 0.00 0.00 100
20260507185953 47 59 5.2 8.7 0.00 0.00 0.00 100
20260507185553 47 75 5.2 7.0 0.00 0.00 0.00 100
20260507185151 47 188 5.2 7.8 0.00 0.00 0.00 100
20260507184750 47 121 5.2 7.8 0.00 0.00 0.00 100
20260507184350 47 177 5.2 7.8 0.00 0.00 0.00 100
20260507183950 46 180 5.2 8.7 0.00 0.00 0.00 100
20260507183550 46 161 6.1 7.8 0.00 0.00 0.00 100
20260507183148 46 210 6.1 8.7 0.00 0.00 0.00 100
20260507182748 46 163 7.0 8.7 0.00 0.00 0.00 100
20260507182348 46 174 6.1 8.7 0.00 0.00 0.00 100
20260507181948 46 204 6.1 9.6 0.00 0.00 0.00 100
20260507181548 46 202 7.0 11.3 0.00 0.00 0.00 100
20260507181147 46 189 7.0 11.3 0.00 0.00 0.00 100
20260507180747 46 192 7.0 10.4 0.00 0.00 0.00 100
20260507180347 46 182 6.1 8.7 0.00 0.00 0.00 100
20260507175938 46 177 6.1 10.4 0.00 0.00 0.00 100
20260507175538 46 141 6.1 8.7 0.00 0.00 0.00 100
20260507175135 46 125 7.0 9.6 0.00 0.00 0.00 100
20260507174735 46 195 5.2 7.8 0.00 0.00 0.00 100
20260507174335 46 180 7.8 10.4 0.00 0.00 0.00 100
20260507173935 46 170 7.0 9.6 0.00 0.00 0.00 100
20260507173535 46 143 5.2 7.8 0.00 0.00 0.00 100
20260507173133 46 195 6.1 9.6 0.00 0.00 0.00 100
20260507172731 46 140 7.0 9.6 0.00 0.00 0.00 100
20260507172331 46 199 7.0 10.4 0.00 0.00 0.00 100
20260507171930 46 146 5.2 7.0 0.00 0.00 0.00 100
20260507171530 46 209 7.0 9.6 0.00 0.00 0.00 100
20260507171128 46 201 5.2 7.8 0.00 0.00 0.00 100
20260507170728 46 190 6.1 8.7 0.00 0.00 0.00 100
20260507170330 46 180 5.2 7.8 0.00 0.00 0.00 100
20260507165928 46 206 5.2 7.8 0.00 0.00 0.00 100
20260507165528 46 194 6.1 9.6 0.00 0.00 0.00 100
20260507165126 46 197 5.2 7.8 0.00 0.00 0.00 100
20260507164726 46 182 5.2 8.7 0.00 0.00 0.00 100
20260507164326 46 217 5.2 7.0 0.00 0.00 0.00 100
20260507163927 46 211 5.2 7.0 0.00 0.00 0.00 100
20260507163527 46 208 4.3 6.1 0.00 0.00 0.00 100
20260507163125 46 176 6.1 7.8 0.00 0.00 0.00 100
20260507162725 46 149 6.1 8.7 0.00 0.00 0.00 100
20260507162325 45 198 5.2 7.0 0.00 0.00 0.00 100
20260507161925 45 141 6.1 7.8 0.00 0.00 0.00 100
20260507161525 45 96 5.2 9.6 0.00 0.00 0.00 100
20260507161123 46 161 6.1 7.8 0.00 0.00 0.00 100
20260507160723 46 127 7.0 12.2 0.00 0.00 0.00 100
20260507160323 47 117 6.1 8.7 0.00 0.00 0.00 100
20260507155923 48 210 4.3 6.1 0.00 0.00 0.00 100
20260507155610 49 63 4.3 6.1 0.00 0.00 0.00 100
20260507155523 49 63 4.3 6.1 0.00 0.00 0.00 100
20260507155121 49 238 3.5 5.2 0.00 0.00 0.00 100
20260507154724 49 225 1.7 2.6 0.00 0.00 0.00 100
20260507154322 47 225 0.0 0.0 0.00 0.00 0.00 100
20260507153922 47 225 0.0 0.0 0.00 0.00 0.00 100
20260507153522 47 225 0.9 1.7 0.00 0.00 0.00 100
20260507153120 47 214 4.3 5.2 0.00 0.00 0.00 100
20260507152720 47 189 4.3 6.1 0.00 0.00 0.00 100
20260507152310 48 192 6.1 8.7 0.00 0.00 0.00 100
20260507151910 48 114 6.1 7.8 0.00 0.00 0.00 100
20260507151510 48 73 5.2 7.0 0.00 0.00 0.00 100
20260507151108 48 199 6.1 7.8 0.00 0.00 0.00 100
20260507150708 49 86 5.2 6.1 0.00 0.00 0.00 100
20260507150307 49 151 5.2 8.7 0.00 0.00 0.00 100
20260507145907 49 104 4.3 7.0 0.00 0.00 0.00 100
20260507145507 50 0 4.3 5.2 0.00 0.00 0.00 100
20260507145105 50 33 4.3 7.8 0.00 0.00 0.00 100
20260507144705 50 204 4.3 6.1 0.00 0.00 0.00 100
20260507144306 50 193 4.3 7.8 0.00 0.00 0.00 100
20260507143905 50 202 6.1 7.8 0.00 0.00 0.00 100
20260507143505 50 210 5.2 7.8 0.00 0.00 0.00 100
20260507143103 50 207 4.3 7.0 0.00 0.00 0.00 100
20260507142703 50 185 3.5 6.1 0.00 0.00 0.00 100
20260507142306 50 209 5.2 6.1 0.00 0.00 0.00 100
20260507141903 50 203 4.3 7.0 0.00 0.00 0.00 100
20260507141503 50 211 3.5 4.3 0.00 0.00 0.00 100
20260507141101 49 202 2.6 4.3 0.00 0.00 0.00 100
20260507140701 50 215 2.6 5.2 0.00 0.00 0.00 100
20260507140301 50 207 3.5 5.2 0.00 0.00 0.00 100
20260507135902 50 72 3.5 6.1 0.00 0.00 0.00 100
20260507135502 49 143 4.3 5.2 0.00 0.00 0.00 100
20260507135059 49 25 5.2 7.0 0.00 0.00 0.00 100
20260507134659 49 352 5.2 7.0 0.00 0.00 0.00 100
20260507134259 49 322 4.3 5.2 0.00 0.00 0.00 100
20260507133859 48 165 5.2 7.0 0.00 0.00 0.00 100
20260507133459 48 21 4.3 6.1 0.00 0.00 0.00 100
20260507133057 48 253 4.3 5.2 0.00 0.00 0.00 100
20260507132657 49 100 5.2 6.1 0.00 0.00 0.00 100
20260507132257 49 172 5.2 8.7 0.00 0.00 0.00 100
20260507131855 48 154 7.0 10.4 0.00 0.00 0.00 100
20260507131455 48 169 6.1 8.7 0.00 0.00 0.00 100
20260507131053 48 161 6.1 7.0 0.00 0.00 0.00 100
20260507130653 47 124 6.1 7.8 0.00 0.00 0.00 100
20260507130253 47 246 6.1 9.6 0.00 0.00 0.00 100
20260507125853 47 226 4.3 7.8 0.00 0.00 0.00 100
20260507125453 47 267 5.2 8.7 0.00 0.00 0.00 100
20260507125042 47 265 3.5 5.2 0.00 0.00 0.00 100
20260507124642 48 253 4.3 7.0 0.00 0.00 0.00 100
20260507124242 49 253 5.2 9.6 0.00 0.00 0.00 100
20260507123842 49 238 7.8 13.9 0.00 0.00 0.00 100
20260507123442 49 188 6.1 8.7 0.00 0.00 0.00 100
20260507123040 49 238 5.2 10.4 0.00 0.00 0.00 100
20260507122639 49 37 3.5 6.1 0.00 0.00 0.00 100
20260507122239 49 244 3.5 5.2 0.00 0.00 0.00 100
20260507121839 49 282 3.5 5.2 0.00 0.00 0.00 100
20260507121439 49 263 5.2 6.1 0.00 0.00 0.00 100
20260507121037 48 240 4.3 6.1 0.00 0.00 0.00 100
20260507120637 48 251 4.3 5.2 0.00 0.00 0.00 100
20260507120237 49 251 3.5 5.2 0.00 0.00 0.00 100
20260507115836 49 235 7.0 12.2 0.00 0.00 0.00 100
20260507115436 49 237 7.8 13.9 0.00 0.00 0.00 100
20260507115035 49 240 3.5 5.2 0.00 0.00 0.00 100
20260507114635 49 270 2.6 4.3 0.00 0.00 0.00 100
20260507114235 49 286 2.6 4.3 0.00 0.00 0.00 100
20260507113834 49 243 2.6 4.3 0.00 0.00 0.00 100
20260507113434 49 288 2.6 4.3 0.00 0.00 0.00 100
20260507113033 50 295 1.7 3.5 0.00 0.00 0.00 100
20260507112632 50 278 2.6 5.2 0.00 0.00 0.00 100
20260507112232 50 245 3.5 5.2 0.00 0.00 0.00 100
20260507111835 50 266 3.5 5.2 0.00 0.00 0.00 100
20260507111432 50 232 4.3 7.0 0.00 0.00 0.00 100
20260507111030 50 260 5.2 17.4 0.00 0.00 0.00 100
20260507110630 50 260 3.5 5.2 0.00 0.00 0.00 100
20260507110230 51 288 2.6 5.2 0.00 0.00 0.00 100
20260507105829 51 288 3.5 6.1 0.00 0.00 0.00 100
20260507105429 52 251 4.3 5.2 0.00 0.00 0.00 100
20260507105027 52 265 2.6 4.3 0.00 0.00 0.00 100
20260507104627 52 255 2.6 6.1 0.00 0.00 0.00 100
20260507104227 52 310 3.5 6.1 0.00 0.00 0.00 100
20260507103827 52 273 3.5 6.1 0.00 0.00 0.00 100
20260507103427 52 304 3.5 7.0 0.00 0.00 0.00 100
20260507103025 52 20 1.7 4.3 0.00 0.00 0.00 100
20260507102625 52 261 3.5 8.7 0.00 0.00 0.00 100
20260507102225 52 208 3.5 6.1 0.00 0.00 0.00 100
20260507101826 52 215 2.6 4.3 0.00 0.00 0.00 100
20260507101418 53 234 2.6 5.2 0.00 0.00 0.00 100
20260507101016 53 251 4.3 5.2 0.00 0.00 0.00 100
20260507100616 53 227 4.3 7.8 0.00 0.00 0.00 100
20260507100216 53 221 4.3 6.1 0.00 0.00 0.00 100
20260507095816 53 274 6.1 8.7 0.00 0.00 0.00 100
20260507095415 53 188 5.2 8.7 0.00 0.00 0.00 100
20260507095014 53 278 4.3 7.0 0.00 0.00 0.00 100
20260507094614 54 266 3.5 5.2 0.00 0.00 0.00 100
20260507094214 54 253 4.3 7.8 0.00 0.00 0.00 100
20260507093814 54 260 1.7 3.5 0.00 0.00 0.00 100
20260507093413 54 308 0.0 0.9 0.00 0.00 0.00 100
20260507093011 53 309 0.9 1.7 0.00 0.00 0.00 100
20260507092611 53 309 0.9 1.7 0.00 0.00 0.00 100
20260507092211 54 270 2.6 3.5 0.00 0.00 0.00 100
20260507091811 54 289 1.7 4.3 0.00 0.00 0.00 100
20260507091411 54 326 2.6 4.3 0.00 0.00 0.00 100
20260507091009 54 281 0.9 1.7 0.00 0.00 0.00 100
20260507090607 53 289 2.6 4.3 0.00 0.00 0.00 100
20260507090207 53 301 0.9 1.7 0.00 0.00 0.00 100
20260507085807 52 265 2.6 4.3 0.00 0.00 0.00 100
20260507085407 52 262 2.6 3.5 0.00 0.00 0.00 100
20260507085005 53 294 2.6 4.3 0.00 0.00 0.00 100
20260507084605 53 299 1.7 2.6 0.00 0.00 0.00 100
20260507084205 52 266 3.5 5.2 0.00 0.00 0.00 100
20260507083804 52 272 1.7 2.6 0.00 0.00 0.00 100
20260507083404 51 276 2.6 3.5 0.00 0.00 0.00 100
20260507083002 51 291 1.7 3.5 0.00 0.00 0.00 100
20260507082602 52 219 3.5 6.1 0.00 0.00 0.00 100
20260507082202 52 252 4.3 7.0 0.00 0.00 0.00 100
20260507081802 52 241 4.3 6.1 0.00 0.00 0.00 100
20260507081402 52 315 5.2 8.7 0.00 0.00 0.00 100
20260507081000 52 288 4.3 6.1 0.00 0.00 0.00 100
20260507080600 52 253 4.3 6.1 0.00 0.00 0.00 100
20260507080200 52 30 4.3 7.0 0.00 0.00 0.00 100
20260507075800 52 319 4.3 6.1 0.00 0.00 0.00 100
20260507075400 52 100 3.5 7.8 0.00 0.00 0.00 100
20260507074958 52 163 4.3 5.2 0.00 0.00 0.00 100
20260507074558 52 148 5.2 8.7 0.00 0.00 0.00 100
20260507074158 52 208 5.2 8.7 0.00 0.00 0.00 100
20260507073749 52 110 6.1 9.6 0.00 0.00 0.00 100
20260507073348 52 141 7.0 9.6 0.00 0.00 0.00 100
20260507072946 52 202 5.2 7.0 0.00 0.00 0.00 100
20260507072547 52 150 6.1 9.6 0.00 0.00 0.00 100
20260507072147 52 172 7.0 10.4 0.00 0.00 0.00 100
20260507071747 53 145 7.0 8.7 0.00 0.00 0.00 100
20260507071346 53 172 6.1 10.4 0.00 0.00 0.00 100
20260507070944 52 200 5.2 8.7 0.00 0.00 0.00 100
20260507070544 52 193 5.2 7.8 0.00 0.00 0.00 100
20260507070144 52 163 7.8 13.9 0.00 0.00 0.00 100
20260507065823 52 178 6.1 11.3 0.00 0.00 0.00 100
20260507065744 52 178 6.1 11.3 0.00 0.00 0.00 100
20260507065344 52 164 7.0 11.3 0.00 0.00 0.00 100
20260507064942 52 167 7.0 14.8 0.00 0.00 0.00 100
20260507064542 52 183 7.0 10.4 0.00 0.00 0.00 100
20260507064142 52 210 7.8 12.2 0.00 0.00 0.00 100
20260507063742 52 152 8.7 12.2 0.00 0.00 0.00 100
20260507063341 52 183 8.7 15.6 0.00 0.00 0.00 100
20260507062940 52 176 9.6 16.5 0.00 0.00 0.00 100
20260507062542 52 140 9.6 13.0 0.00 0.00 0.00 100
20260507062139 52 181 7.8 13.0 0.00 0.00 0.00 100
20260507061739 51 149 7.8 13.9 0.00 0.00 0.00 100
20260507061340 51 176 6.1 7.8 0.00 0.00 0.00 100
20260507060937 51 138 9.6 16.5 0.00 0.00 0.00 100
20260507060537 51 168 7.8 11.3 0.00 0.00 0.00 100
20260507060137 51 178 7.0 11.3 0.00 0.00 0.00 100
20260507055737 51 177 7.0 13.0 0.00 0.00 0.00 100
20260507055337 51 158 7.8 10.4 0.00 0.00 0.00 100
20260507054935 51 195 8.7 13.0 0.00 0.00 0.00 100
20260507054535 51 172 7.0 13.9 0.00 0.00 0.00 100
20260507054135 51 177 8.7 10.4 0.00 0.00 0.00 100
20260507053735 51 156 9.6 13.9 0.00 0.00 0.00 100
20260507053335 51 167 7.8 12.2 0.00 0.00 0.00 100
20260507052936 51 151 7.8 12.2 0.00 0.00 0.00 100
20260507052533 50 159 7.0 11.3 0.00 0.00 0.00 100
20260507052133 50 159 7.8 10.4 0.00 0.00 0.00 100
20260507051733 50 191 8.7 13.9 0.00 0.00 0.00 100
20260507051333 50 168 7.8 10.4 0.00 0.00 0.00 100
20260507050931 50 181 8.7 13.0 0.00 0.00 0.00 100
20260507050531 50 154 8.7 12.2 0.00 0.00 0.00 100
20260507050124 50 183 7.8 12.2 0.00 0.00 0.00 100
20260507045721 49 179 9.6 14.8 0.00 0.00 0.00 100
20260507045321 49 167 7.0 9.6 0.00 0.00 0.00 100
20260507044919 50 117 6.1 8.7 0.00 0.00 0.00 100
20260507044519 50 150 8.7 17.4 0.00 0.00 0.00 100
20260507044119 50 140 9.6 17.4 0.00 0.00 0.00 100
20260507043719 50 128 9.6 12.2 0.00 0.00 0.00 100
20260507043319 50 158 11.3 16.5 0.00 0.00 0.00 100
20260507042917 50 163 12.2 20.9 0.00 0.00 0.00 100
20260507042517 50 196 9.6 14.8 0.00 0.00 0.00 100
20260507042117 50 151 9.6 16.5 0.00 0.00 0.00 100
20260507041717 50 162 9.6 13.0 0.00 0.00 0.00 100
20260507041316 50 184 9.6 15.6 0.00 0.00 0.00 100
20260507040914 50 138 8.7 12.2 0.00 0.00 0.00 100
20260507040514 50 123 9.6 13.9 0.00 0.00 0.00 100
20260507040114 49 119 9.6 16.5 0.00 0.00 0.00 100
20260507035714 49 125 10.4 13.0 0.00 0.00 0.00 100
20260507035314 50 136 10.4 16.5 0.00 0.00 0.00 100
20260507034912 50 165 11.3 17.4 0.00 0.00 0.00 100
20260507034512 50 135 8.7 13.9 0.00 0.00 0.00 100
20260507034112 50 148 13.0 20.9 0.00 0.00 0.00 100
20260507033712 50 170 11.3 18.2 0.00 0.00 0.00 100
20260507033311 50 173 13.0 18.2 0.00 0.00 0.00 100
20260507032909 50 166 12.2 19.1 0.00 0.00 0.00 100
20260507032509 50 163 11.3 16.5 0.00 0.00 0.00 100
20260507032109 50 173 12.2 18.2 0.00 0.00 0.00 100
20260507031709 50 180 13.9 19.1 0.00 0.00 0.00 100
20260507031310 50 126 10.4 15.6 0.00 0.00 0.00 100
20260507030507 50 166 14.8 21.7 0.00 0.00 0.00 100
20260507030107 50 173 13.0 20.9 0.00 0.00 0.00 100
20260507025707 50 168 15.6 23.5 0.00 0.00 0.00 100
20260507025307 50 144 12.2 16.5 0.00 0.00 0.00 100
20260507024905 50 151 13.9 20.9 0.00 0.00 0.00 100
20260507024505 50 165 13.0 20.9 0.00 0.00 0.00 100
20260507024105 50 173 11.3 15.6 0.00 0.00 0.00 100
20260507023705 50 180 12.2 14.8 0.00 0.00 0.00 100
20260507023305 50 167 12.2 19.1 0.00 0.00 0.00 100
20260507022854 50 167 11.3 14.8 0.00 0.00 0.00 100
20260507022454 50 164 9.6 12.2 0.00 0.00 0.00 100
20260507022054 50 209 11.3 18.2 0.00 0.00 0.00 100
20260507021653 50 177 11.3 17.4 0.00 0.00 0.00 100
20260507021253 50 173 13.0 20.9 0.00 0.00 0.00 100
20260507020851 50 183 12.2 22.6 0.00 0.00 0.00 100
20260507020451 50 134 11.3 17.4 0.00 0.00 0.00 100
20260507020052 50 174 13.0 19.1 0.00 0.00 0.00 100
20260507015651 50 165 12.2 19.1 0.00 0.00 0.00 100
20260507015251 50 172 12.2 26.9 0.00 0.00 0.00 100
20260507014849 50 191 11.3 20.0 0.00 0.00 0.00 100
20260507014449 50 166 13.0 18.2 0.00 0.00 0.00 100
20260507014049 50 176 12.2 25.2 0.00 0.00 0.00 100
20260507013649 50 166 12.2 19.1 0.00 0.00 0.00 100
20260507013248 51 188 12.2 20.9 0.00 0.00 0.00 100